TimeMST,TemperatureF,Dew PointF,Humidity,Sea Level PressureIn,VisibilityMPH,Wind Direction,Wind SpeedMPH,Gust SpeedMPH,PrecipitationIn,Events,Conditions,WindDirDegrees,DateUTC
12:53 AM,50.0,33.1,52,29.90,10.0,SE,5.8,-,N/A,,Clear,140,2012-12-08 07:53:00
1:53 AM,50.0,33.1,52,29.90,10.0,SE,8.1,-,N/A,,Clear,140,2012-12-08 08:53:00
2:53 AM,48.0,33.1,56,29.90,10.0,SSE,9.2,-,N/A,,Clear,160,2012-12-08 09:53:00
3:53 AM,46.9,33.1,59,29.90,10.0,SSE,6.9,-,N/A,,Clear,160,2012-12-08 10:53:00
4:53 AM,46.9,32.0,56,29.90,10.0,SSE,4.6,-,N/A,,Clear,150,2012-12-08 11:53:00
5:53 AM,46.0,32.0,58,29.91,10.0,SE,8.1,-,N/A,,Clear,140,2012-12-08 12:53:00
6:53 AM,46.0,33.1,61,29.93,10.0,SSE,6.9,-,N/A,,Clear,150,2012-12-08 13:53:00
7:53 AM,46.9,32.0,56,29.94,10.0,SSE,8.1,-,N/A,,Clear,150,2012-12-08 14:53:00
8:53 AM,52.0,33.1,49,29.94,10.0,SSE,10.4,-,N/A,,Clear,150,2012-12-08 15:53:00
9:53 AM,57.9,35.1,42,29.95,10.0,South,3.5,-,N/A,,Clear,180,2012-12-08 16:53:00
10:53 AM,64.0,35.1,34,29.94,10.0,Calm,Calm,-,N/A,,Clear,0,2012-12-08 17:53:00
11:53 AM,66.9,36.0,32,29.91,10.0,West,4.6,-,N/A,,Clear,280,2012-12-08 18:53:00
12:53 PM,69.1,34.0,27,29.87,10.0,SW,3.5,-,N/A,,Clear,220,2012-12-08 19:53:00
1:53 PM,70.0,30.9,24,29.85,10.0,WSW,3.5,-,N/A,,Clear,250,2012-12-08 20:53:00
2:53 PM,71.1,30.9,23,29.84,10.0,Variable,6.9,-,N/A,,Clear,0,2012-12-08 21:53:00
3:53 PM,70.0,32.0,25,29.84,10.0,NW,6.9,-,N/A,,Clear,310,2012-12-08 22:53:00
4:53 PM,69.1,30.9,24,29.85,10.0,WNW,4.6,-,N/A,,Clear,300,2012-12-08 23:53:00
5:53 PM,64.9,33.1,31,29.87,10.0,NNW,4.6,-,N/A,,Clear,330,2012-12-09 00:53:00
6:53 PM,63.0,30.9,30,29.88,10.0,Calm,Calm,-,N/A,,Clear,0,2012-12-09 01:53:00
7:53 PM,57.2,32.0,38,29.96,10.0,WSW,4.6,-,N/A,,Clear,250,2012-12-09 02:53:00
8:53 PM,54.0,30.0,40,29.92,10.0,SSE,4.6,-,N/A,,Clear,150,2012-12-09 03:53:00
9:53 PM,53.1,28.9,40,29.92,10.0,South,8.1,-,N/A,,Clear,180,2012-12-09 04:53:00
10:53 PM,50.0,28.0,43,29.93,10.0,South,4.6,-,N/A,,Clear,170,2012-12-09 05:53:00
11:53 PM,50.0,28.0,43,29.93,10.0,Calm,Calm,-,N/A,,Clear,0,2012-12-09 06:53:00